Home   Weather   Zweibrücken   Past weeks

Flag for Germany Past Weather in Zweibrücken, Rhineland-Palatinate, Germany — Yesterday and Last 2 Weeks

Now
55 °F

Passing clouds.


Feels Like: 52 °F
Forecast: 49 / 57 °F
Wind: 12 mph from Southwest

Location: Saarbruecken / Ensheim

Current Time: Oct 1, 2016 at 7:19:53 PM

Latest Report: Oct 1, 2016 at 6:50 PM


Visibility: N/A

Pressure: 29.86 "Hg

Humidity: 88%

Dew Point: 52 °F

Location of ZweibrückenLocation

Past Weather in Zweibrücken — Graph

°F

Zweibrücken Temperature Yesterday

Maximum temperature yesterday: 63 °F (at 11:20 AM)
Minimum temperature yesterday: 55 °F (at 2:50 AM)
Average temperature yesterday: 58 °F

High & Low Weather Summary for the Past Weeks

 TemperatureHumidityPressure
High77 °F (Sep 25, 2:20 PM)100% (Sep 17, 2:20 AM)30.39 "Hg (Sep 17, 2:20 AM)
Low46 °F (Sep 22, 5:50 AM)33% (Sep 24, 4:20 PM)29.80 "Hg (Oct 1, 2:50 PM)
Average59 °F78%30.12 "Hg
* Reported Sep 16 6:20 PM — Oct 1 6:20 PM, Zweibrücken, Weather by CustomWeather, © 2016

Note: Actual official high and low records may vary slightly from our data, if they occured in-between our weather recording intervals... More about our weather records

Advertising

Zweibrücken Weather History for the Previous 24 Hours

Scroll right to see more
 ConditionsComfort  
Time TempWeatherWind HumidityBarometerVisibility
6:20 PM
Sat, Oct 1
57 °FPassing clouds.10 mph88%29.86 "HgN/A
5:50 PM57 °FScattered clouds.13 mph88%29.86 "HgN/A
5:20 PM57 °FBroken clouds.13 mph94%29.86 "HgN/A
4:50 PM57 °FBroken clouds.12 mph94%29.86 "HgN/A
4:20 PM57 °FBroken clouds.8 mph94%29.83 "HgN/A
3:50 PM57 °FBroken clouds.10 mph94%29.83 "HgN/A
3:20 PM57 °FRain showers. Broken clouds.15 mph94%29.83 "Hg3 mi
2:50 PM59 °FRain showers. Broken clouds.10 mph94%29.80 "Hg4 mi
2:20 PM61 °FLight rain. Broken clouds.14 mph88%29.83 "HgN/A
1:50 PM61 °FBroken clouds.15 mph88%29.83 "HgN/A
1:20 PM59 °FBroken clouds.14 mph94%29.83 "HgN/A
12:50 PM61 °FLight rain. Broken clouds.14 mph88%29.83 "HgN/A
12:20 PM59 °FBroken clouds.14 mph94%29.83 "HgN/A
11:50 AM59 °FLight rain. Partly sunny.14 mph94%29.83 "HgN/A
11:20 AM59 °FLight rain. Mostly cloudy.13 mph94%29.83 "HgN/A
10:50 AM59 °FLight rain. Mostly cloudy.15 mph94%29.83 "HgN/A
10:20 AM59 °FRain. Partly sunny.15 mph94%29.83 "Hg4 mi
9:50 AM59 °FRain. Partly sunny.17 mph94%29.83 "Hg2 mi
9:20 AM59 °FRain. Partly sunny.13 mph94%29.83 "Hg2 mi
8:50 AM59 °FRain. Partly sunny.13 mph94%29.83 "Hg4 mi
8:20 AM57 °FLight rain. Partly sunny.12 mph100%29.83 "Hg4 mi
7:50 AM57 °FLight rain. Partly sunny.14 mph94%29.83 "Hg4 mi
7:20 AM55 °FRain. Overcast.8 mph100%29.83 "Hg3 mi
6:50 AM55 °FLight rain. Mostly cloudy.7 mph100%29.83 "HgN/A
6:20 AM55 °FLight rain. Mostly cloudy.8 mph100%29.83 "HgN/A
5:50 AM57 °FLight rain. Low clouds.7 mph94%29.83 "HgN/A
5:20 AM57 °FLight rain. Mostly cloudy.7 mph94%29.83 "HgN/A
4:50 AM57 °FLight rain. Mostly cloudy.6 mph94%29.83 "HgN/A
4:20 AM57 °FLight rain. Passing clouds.9 mph94%29.86 "HgN/A
3:50 AM57 °FRain. Passing clouds.8 mph94%29.86 "Hg4 mi
3:20 AM57 °FPassing clouds.9 mph94%29.89 "Hg5 mi
2:50 AM57 °FPassing clouds.10 mph94%29.89 "Hg4 mi
2:20 AM57 °FPassing clouds.8 mph94%29.92 "Hg3 mi
1:50 AM57 °FPassing clouds.8 mph94%29.92 "Hg3 mi
1:20 AM55 °FPassing clouds.5 mph100%29.92 "Hg3 mi
12:50 AM55 °FPassing clouds.8 mph100%29.92 "Hg4 mi
12:20 AM57 °FOvercast.8 mph94%29.95 "HgN/A
11:50 PM
Fri, Sep 30
57 °FPassing clouds.6 mph88%29.95 "Hg6 mi
11:20 PM55 °FPassing clouds.3 mph94%29.95 "HgN/A
10:50 PM55 °FLight rain. Passing clouds.3 mph94%29.95 "HgN/A
10:20 PM57 °FLight rain. Partly cloudy.2 mph88%29.98 "HgN/A
9:50 PM57 °FLight rain. Passing clouds.2 mph88%29.98 "HgN/A
9:20 PM57 °FLight rain. Passing clouds.2 mph88%29.98 "HgN/A
8:50 PM57 °FPassing clouds.1 mph88%29.98 "HgN/A
8:20 PM57 °FPassing clouds.1 mph88%29.98 "HgN/A
7:50 PM57 °FPartly cloudy.No wind94%29.98 "HgN/A
7:20 PM57 °FPassing clouds.2 mph94%30.01 "HgN/A
Weather by CustomWeather, © 2016

See weather overviewHow to use our weather pages